Weather History for Liberia, Costa Rica

Change the Weather History Date:

Friday, September 21, 2012

  Actual Average Record
Temperature  
Mean Temperature 81 °F -  
Max Temperature 89 °F 84 °F 93 °F (1997)
Min Temperature 73 °F 73 °F 71 °F (2006)
Cooling Degree Days 16    
Growing Degree Days 31 (Base 50)    
Moisture  
Dew Point 74 °F    
Average Humidity 80    
Maximum Humidity 100    
Minimum Humidity 55    
Precipitation  
Precipitation 0.55 in - - ()
Sea Level Pressure  
Sea Level Pressure 29.80 in    
Wind  
Wind Speed 4 mph ()    
Max Wind Speed 13 mph    
Max Gust Speed -    
Visibility 6.9 miles    
Events Rain , Thunderstorm    
Averages and records for this station are not official NWS values.
T = Trace of Precipitation, MM = Missing Value Source: Averaged Metar Reports

Daily Weather History Graph

Daily Weather History Graph

Search for Another Location

Airport:

Trip Planner

Search our weather history database for the weather conditions in past years. The results will help you decide how hot, cold, wet, or windy it might be!

Date:

Astronomy

Sep. 21, 2012 Rise Set
Actual Time 5:31 AM CST 5:38 PM CST
Civil Twilight 5:10 AM CST 5:59 PM CST
Nautical Twilight 4:45 AM CST 6:23 PM CST
Astronomical Twilight 4:21 AM CST 6:48 PM CST
Moon 10:48 AM CST (9/21) 10:42 PM CST (9/21)
Length of Visible Light 12h 49m
Length of Day
12h 07m
Waxing Crescent, 38% of the Moon is Illuminated
Sep 21
Waxing Crescent
Sep 22
First Quarter
Sep 29
Full
Oct 8
Last Quarter
Oct 15
New

Hourly Weather History & Observations

Time (CST) Temp. Heat Index Dew Point Humidity Pressure Visibility Wind Dir Wind Speed Gust Speed Precip Events Conditions
6:00 AM 73.4 °F - 71.6 °F 94% 29.83 in - Calm Calm - N/A   Clear
7:00 AM 78.8 °F - 73.4 °F 83% 29.86 in 6.2 mi Calm Calm - N/A   Mostly Cloudy
8:00 AM 80.6 °F 85.4 °F 73.4 °F 79% 29.85 in 6.2 mi NW 3.5 mph - N/A   Scattered Clouds
9:00 AM 82.4 °F 88.2 °F 73.4 °F 74% 29.86 in 6.2 mi Calm Calm - N/A   Scattered Clouds
10:00 AM 86.0 °F 93.4 °F 73.4 °F 66% 29.84 in 6.2 mi SW 4.6 mph - N/A   Mostly Cloudy
11:00 AM 89.6 °F 96.2 °F 71.6 °F 55% 29.82 in 6.2 mi West 4.6 mph - N/A   Mostly Cloudy
12:00 PM 85 °F - 75 °F 65% 29.82 in 12 mi NNW 8.9 mph - -   Partly Cloudy
12:00 PM 86.0 °F 95.1 °F 75.2 °F 70% 29.80 in 6.2 mi NNW 4.6 mph - N/A   Mostly Cloudy
1:00 PM 80.6 °F 86.2 °F 75.2 °F 84% 29.78 in 6.2 mi SSW 6.9 mph - N/A   Mostly Cloudy
2:00 PM 84.2 °F 90.9 °F 73.4 °F 70% 29.75 in 6.2 mi WSW 11.5 mph - N/A   Mostly Cloudy
3:00 PM 86 °F - 74 °F 59% 29.75 in 12 mi West 12.7 mph - -   Overcast
3:00 PM 86.0 °F 93.4 °F 73.4 °F 66% 29.72 in 6.2 mi West 12.7 mph - N/A   Mostly Cloudy
3:10 PM 82.4 °F 89.5 °F 75.2 °F 79% 29.73 in 6.2 mi West 11.5 mph - N/A Rain , Thunderstorm Light Thunderstorms and Rain
3:28 PM 78.8 °F - 75.2 °F 89% 29.75 in 1.2 mi SSW 10.4 mph - N/A Rain , Thunderstorm Light Thunderstorms and Rain
4:00 PM 73.4 °F - 73.4 °F 100% 29.75 in 6.2 mi SW 6.9 mph - N/A Rain Light Rain
5:00 PM 75.2 °F - 73.4 °F 94% 29.78 in 6.2 mi SE 5.8 mph - N/A   Mostly Cloudy
6:00 PM 75 °F - 73 °F 93% 29.81 in 12 mi SE 3.5 mph - - Rain Light Drizzle
6:00 PM 75.2 °F - 73.4 °F 94% 29.80 in 6.2 mi SE 3.5 mph - N/A   Light Drizzle
7:00 PM 75.2 °F - 73.4 °F 94% 29.81 in 6.2 mi SE 3.5 mph - N/A   Mostly Cloudy
8:00 PM 73.4 °F - 71.6 °F 94% 29.82 in 6.2 mi SSE 4.6 mph - N/A   Mostly Cloudy